DW7857 Weather Reports


Display with metric or nautical units.
time (UTC)temp
F
wind
direction
speed
MPH
gust
MPH
rain 1hr
in
rain 24hr
in
rain mn
in
humidity
%
barometer
mb
20180421094019 48 0 0.0 0.0 0.00 0.00 0.00 87 1023.4
20180421093019 48 0 0.0 0.0 0.00 0.00 0.00 87 1023.5
20180421092019 48 0 0.0 0.0 0.00 0.00 0.00 87 1023.6
20180421091019 48 0 0.0 0.0 0.00 0.00 0.00 87 1023.5
20180421090019 48 0 0.0 0.0 0.00 0.00 0.00 87 1023.7
20180421085019 48 0 0.0 0.0 0.00 0.00 0.00 87 1023.7
20180421084019 48 0 0.0 0.0 0.00 0.00 0.00 87 1023.8
20180421083019 48 0 0.0 0.0 0.00 0.00 0.00 87 1023.8
20180421082019 48 0 0.0 0.0 0.00 0.00 0.00 87 1023.9
20180421081019 48 0 0.0 0.0 0.00 0.00 0.00 87 1024.0
20180421080019 48 0 0.0 0.0 0.00 0.00 0.00 87 1023.9
20180421075019 48 0 0.0 0.0 0.00 0.00 0.00 87 1023.8
20180421074012 48 0 0.0 0.0 0.00 0.00 0.00 87 1023.7
20180421073019 48 0 0.0 0.0 0.00 0.00 0.00 87 1024.0
20180421072012 48 0 0.0 0.0 0.00 0.00 0.00 87 1023.9
20180421071019 48 0 0.0 0.0 0.00 0.00 0.00 87 1023.9
20180421070019 48 0 0.0 0.0 0.00 0.00 0.00 87 1024.1
20180421065019 48 0 0.0 0.0 0.00 0.00 0.00 87 1024.1
20180421064019 48 0 0.0 0.0 0.00 0.00 0.00 87 1024.2
20180421063019 48 0 0.0 0.0 0.00 0.00 0.00 87 1024.4
20180421062019 48 0 0.0 0.0 0.00 0.00 0.00 87 1024.3
20180421061019 48 0 0.0 0.0 0.00 0.00 0.00 87 1024.2
20180421060019 48 0 0.0 0.0 0.00 0.00 0.00 87 1024.4
20180421055019 48 0 0.0 0.0 0.00 0.00 0.00 82 1024.4
20180421054019 48 0 0.0 0.0 0.00 0.00 0.00 82 1024.5
20180421053019 48 0 0.0 0.0 0.00 0.00 0.00 82 1024.1
20180421052019 48 0 0.0 0.0 0.00 0.00 0.00 82 1024.3
20180421051019 48 0 0.0 0.0 0.00 0.00 0.00 82 1024.3
20180421050019 48 0 0.0 0.0 0.00 0.00 0.00 82 1024.5
20180421045019 48 0 0.0 0.0 0.00 0.00 0.00 82 1024.3
20180421044019 48 0 0.0 0.0 0.00 0.00 0.00 82 1024.2
20180421043019 48 0 0.0 0.0 0.00 0.00 0.00 82 1024.4
20180421042012 48 0 0.0 0.0 0.00 0.00 0.00 82 1024.4
20180421041019 48 0 0.0 0.0 0.00 0.00 0.00 82 1024.4
20180421040019 48 0 0.0 0.0 0.00 0.00 0.00 82 1024.4
20180421035012 48 0 0.0 0.0 0.00 0.00 0.00 82 1024.5
20180421034019 48 0 0.0 0.0 0.00 0.00 0.00 82 1024.5
20180421033012 48 0 0.0 0.0 0.00 0.00 0.00 82 1024.6
20180421032019 48 0 0.0 0.0 0.00 0.00 0.00 82 1024.8
20180421031019 48 0 0.0 0.0 0.00 0.00 0.00 82 1024.9
20180421030012 48 0 0.0 0.0 0.00 0.00 0.00 82 1024.8
20180421025019 48 0 0.0 0.0 0.00 0.00 0.00 82 1025.2
20180421024019 48 0 0.0 0.0 0.00 0.00 0.00 82 1025.1
20180421023019 48 0 0.0 0.0 0.00 0.00 0.00 82 1025.1
20180421022019 48 0 0.0 0.0 0.00 0.00 0.00 82 1025.3
20180421021019 48 0 0.0 0.0 0.00 0.00 0.00 82 1025.1
20180421020019 48 0 0.0 0.0 0.00 0.00 0.00 82 1025.2
20180421015019 48 0 0.0 0.0 0.00 0.00 0.00 82 1025.3
20180421014012 48 0 0.0 0.0 0.00 0.00 0.00 82 1025.6
20180421013019 48 0 0.0 0.0 0.00 0.00 0.00 82 1025.8
20180421012012 48 0 0.0 0.0 0.00 0.00 0.00 82 1025.6
20180421011019 48 59 0.0 2.0 0.00 0.00 0.00 81 1025.7
20180421010012 48 62 1.0 2.0 0.00 0.00 0.00 81 1025.7
20180421005019 48 54 0.0 2.0 0.00 0.00 0.00 81 1025.9
20180421004019 49 66 1.0 2.0 0.00 0.00 0.00 81 1025.7
20180421003019 49 0 0.0 0.0 0.00 0.00 0.00 81 1026.0
20180421002019 49 0 0.0 0.0 0.00 0.00 0.00 80 1026.0
20180421001019 49 0 0.0 0.0 0.00 0.00 0.00 80 1025.9
20180421000016 50 0 0.0 0.0 0.00 0.00 0.00 80 1026.0
20180420235019 50 1 0.0 1.0 0.00 0.00 0.00 80 1026.0
20180420234019 50 39 1.0 2.0 0.00 0.00 0.00 80 1026.1
20180420233019 50 82 0.0 2.0 0.00 0.00 0.00 80 1026.2
20180420232019 50 45 0.0 2.0 0.00 0.00 0.00 80 1026.3
20180420231012 50 26 0.0 2.0 0.00 0.00 0.00 80 1026.1
20180420230019 51 0 0.0 0.0 0.00 0.00 0.00 79 1026.3
20180420225019 51 0 0.0 0.0 0.00 0.00 0.00 79 1026.4
20180420224019 51 90 0.0 2.0 0.00 0.00 0.00 78 1026.3
20180420223019 51 0 0.0 0.0 0.00 0.00 0.00 77 1026.4
20180420222019 52 53 1.0 2.0 0.00 0.00 0.00 77 1026.5
20180420221012 52 46 0.0 1.0 0.00 0.00 0.00 77 1026.4
20180420220019 52 45 0.0 2.0 0.00 0.00 0.00 76 1026.6
20180420215019 53 54 0.0 1.0 0.00 0.00 0.00 76 1026.5
20180420214019 53 59 1.0 2.0 0.00 0.00 0.00 75 1026.6
20180420213012 53 63 2.0 3.0 0.00 0.00 0.00 75 1026.8
20180420212019 54 40 1.0 2.0 0.00 0.00 0.00 74 1026.7
20180420211019 54 329 2.0 4.0 0.00 0.00 0.00 72 1026.5
20180420210012 55 334 2.0 3.0 0.00 0.00 0.00 72 1026.8
20180420205012 55 314 1.0 3.0 0.00 0.00 0.00 71 1026.9
20180420204020 55 335 3.0 4.0 0.00 0.00 0.00 71 1026.9
20180420203019 55 339 3.0 4.0 0.00 0.00 0.00 71 1027.0
20180420202019 56 333 3.0 4.0 0.00 0.00 0.00 71 1026.7
20180420201021 56 348 1.0 4.0 0.00 0.00 0.00 71 1026.8
20180420200012 56 52 3.0 4.0 0.00 0.00 0.00 70 1026.7
20180420195019 57 64 2.0 3.0 0.00 0.00 0.00 70 1026.8
20180420194019 58 65 2.0 3.0 0.00 0.00 0.00 69 1026.6
20180420193019 58 45 4.0 7.0 0.00 0.00 0.00 68 1026.7
20180420192019 59 79 3.0 4.0 0.00 0.00 0.00 66 1026.5
20180420191012 60 50 4.0 4.0 0.00 0.00 0.00 65 1026.6
20180420190019 60 75 5.0 6.0 0.00 0.00 0.00 63 1026.7
20180420185019 61 60 4.0 7.0 0.00 0.00 0.00 61 1026.6
20180420184019 62 58 2.0 4.0 0.00 0.00 0.00 57 1026.6
20180420183019 64 338 3.0 5.0 0.00 0.00 0.00 50 1026.2
20180420182019 66 15 3.0 5.0 0.00 0.00 0.00 48 1026.5
20180420181019 67 336 4.0 7.0 0.00 0.00 0.00 46 1026.4
20180420180011 67 14 3.0 7.0 0.00 0.00 0.00 46 1026.5
20180420175019 67 47 5.0 7.0 0.00 0.00 0.00 44 1026.5
20180420174012 67 13 5.0 8.0 0.00 0.00 0.00 44 1026.4
20180420173012 67 43 7.0 8.0 0.00 0.00 0.00 46 1026.7
20180420172020 67 39 7.0 8.0 0.00 0.00 0.00 46 1026.5
20180420171012 68 24 6.0 11.0 0.00 0.00 0.00 47 1026.8
20180420170012 69 40 7.0 8.0 0.00 0.00 0.00 50 1026.5
20180420165019 69 91 5.0 8.0 0.00 0.00 0.00 46 1026.7
20180420164019 69 78 7.0 8.0 0.00 0.00 0.00 46 1026.7
20180420163012 70 55 6.0 9.0 0.00 0.00 0.00 45 1026.4
20180420162020 70 49 7.0 8.0 0.00 0.00 0.00 44 1026.7
20180420161019 70 65 6.0 8.0 0.00 0.00 0.00 46 1026.7
20180420160019 71 66 7.0 9.0 0.00 0.00 0.00 48 1026.6
20180420155012 71 59 6.0 9.0 0.00 0.00 0.00 45 1026.9
20180420154020 71 4 7.0 9.0 0.00 0.00 0.00 45 1026.8
20180420153019 71 48 6.0 8.0 0.00 0.00 0.00 44 1026.9
20180420152012 72 77 4.0 6.0 0.00 0.00 0.00 45 1026.9
20180420151019 72 39 5.0 8.0 0.00 0.00 0.00 45 1027.0
20180420150019 72 19 5.0 8.0 0.00 0.00 0.00 46 1027.1
20180420145019 71 326 6.0 9.0 0.00 0.00 0.00 46 1027.1
20180420144019 71 32 6.0 9.0 0.00 0.00 0.00 45 1027.2
20180420143019 71 52 6.0 8.0 0.00 0.00 0.00 46 1027.3
20180420142019 71 338 6.0 8.0 0.00 0.00 0.00 45 1027.3
20180420141019 70 345 7.0 8.0 0.00 0.00 0.00 46 1027.4
20180420140011 70 355 6.0 8.0 0.00 0.00 0.00 46 1027.5
20180420135019 70 49 6.0 10.0 0.00 0.00 0.00 49 1027.5
20180420134019 69 76 7.0 11.0 0.00 0.00 0.00 48 1027.6
20180420133019 69 46 7.0 9.0 0.00 0.00 0.00 48 1027.7
20180420132019 70 2 6.0 9.0 0.00 0.00 0.00 49 1027.8
20180420131020 70 39 7.0 9.0 0.00 0.00 0.00 50 1027.7
20180420130012 69 48 7.0 9.0 0.00 0.00 0.00 51 1027.8
20180420125019 70 10 7.0 8.0 0.00 0.00 0.00 53 1027.7
20180420124019 69 75 7.0 8.0 0.00 0.00 0.00 52 1027.6
20180420123020 69 80 7.0 10.0 0.00 0.00 0.00 50 1027.7
20180420122019 70 41 6.0 8.0 0.00 0.00 0.00 50 1027.9
20180420121020 70 343 5.0 7.0 0.00 0.00 0.00 50 1028.1
20180420120018 69 351 4.0 9.0 0.00 0.00 0.00 51 1028.0
20180420115018 68 66 5.0 7.0 0.00 0.00 0.00 51 1028.1
20180420114018 68 63 5.0 8.0 0.00 0.00 0.00 52 1028.1
20180420113018 67 359 7.0 11.0 0.00 0.00 0.00 54 1027.9
20180420112018 67 14 5.0 7.0 0.00 0.00 0.00 54 1028.3
20180420111018 66 353 7.0 12.0 0.00 0.00 0.00 57 1028.1
20180420110018 65 10 6.0 12.0 0.00 0.00 0.00 55 1028.3
20180420105018 64 33 7.0 11.0 0.00 0.00 0.00 58 1028.1
20180420104018 63 86 8.0 10.0 0.00 0.00 0.00 63 1028.3
20180420103018 63 58 6.0 11.0 0.00 0.00 0.00 63 1028.4
20180420102018 62 60 10.0 11.0 0.00 0.00 0.00 63 1028.1
20180420100053 49 225 4.0 4.0 0.00 0.00 0.00 92 1028.1
20180420095017 49 225 4.0 4.0 0.00 0.00 0.00 92 1028.1